ASTRA 4A

Last updated on Mon Oct 20 2025 00:02:46 GMT+0000 (Coordinated Universal Time)

1 32299U 07057A 25292.26827056 .00000031 00000+0 00000+0 0 9992 2 32299 0.0673 69.3803 0002450 123.3420 296.6800 1.00273243 49239
UTC large
Height (km)
Speed (km/s)
/
Latitude / Longitude
Inclination (degrees)
Orbital Period (minutes)
Azimuth
Elevation
Range (km)
Doppler Factor

Next 0 passes for location: London (51.5072 / 0.1276)

Sorry there are no passes over London.